When you browse on this site, cookies collect data to enhance your experience and personalize the content and advertising you see.
Visit our Privacy Policy to learn more. By continuing to use the site, you agree to this use of cookies and data.
  • In Netherlands
  • List of Countries
  • For 7 days
  • Water Temperature
  • Satellite Maps
  • Weather Map
  • Weather Widgets
  • user-avatar
    Login

    Hourly Weather Lugovaya

    Today, 19 July, Friday

    Time Temperature Precipitation Wind Pressure Humidity
    00:00 +12°C° 0 mm 3 mps 739 mmHg 92%
    01:00 +12°C° 0 mm 3 mps 739 mmHg 94%
    02:00 +12°C° 0 mm 3 mps 739 mmHg 95%
    03:00 +12°C° 0 mm 3 mps 739 mmHg 96%
    04:00 +12°C° 0 mm 4 mps 739 mmHg 95%
    05:00 +13°C° 0 mm 4 mps 739 mmHg 95%
    06:00 +13°C° 0 mm 4 mps 739 mmHg 94%
    07:00 +13°C° 0.2 mm 5 mps 740 mmHg 93%
    08:00 +14°C° 0.2 mm 5 mps 740 mmHg 92%
    09:00 +14°C° 0.2 mm 6 mps 740 mmHg 90%
    10:00 +15°C° 0.1 mm 6 mps 740 mmHg 88%
    11:00 +16°C° 0.1 mm 6 mps 740 mmHg 86%
    12:00 +17°C° 0.1 mm 7 mps 740 mmHg 84%
    13:00 +17°C° 0.5 mm 7 mps 740 mmHg 82%
    14:00 +18°C° 0.5 mm 7 mps 740 mmHg 80%
    15:00 +20°C° 0.5 mm 8 mps 740 mmHg 79%
    16:00 +20°C° 0.2 mm 7 mps 741 mmHg 79%
    17:00 +20°C° 0.2 mm 7 mps 741 mmHg 80%
    18:00 +20°C° 0.2 mm 6 mps 741 mmHg 80%
    19:00 +19°C° 0 mm 5 mps 741 mmHg 83%
    20:00 +16°C° 0 mm 5 mps 741 mmHg 85%
    21:00 +15°C° 0 mm 5 mps 742 mmHg 87%
    22:00 +15°C° 0 mm 4 mps 742 mmHg 88%
    23:00 +14°C° 0 mm 4 mps 742 mmHg 89%

    Tomorrow, 20 July, Saturday

    Time Temperature Precipitation Wind Pressure Humidity
    00:00 +13°C° 0 mm 4 mps 742 mmHg 89%
    01:00 +13°C° 0 mm 4 mps 743 mmHg 91%
    02:00 +13°C° 0 mm 5 mps 743 mmHg 92%
    03:00 +13°C° 0 mm 5 mps 743 mmHg 93%
    04:00 +13°C° 0 mm 5 mps 743 mmHg 92%
    05:00 +13°C° 0 mm 5 mps 743 mmHg 90%
    06:00 +13°C° 0 mm 5 mps 744 mmHg 89%
    07:00 +14°C° 0 mm 5 mps 744 mmHg 85%
    08:00 +16°C° 0 mm 6 mps 744 mmHg 81%
    09:00 +17°C° 0 mm 6 mps 744 mmHg 78%
    10:00 +20°C° 0.1 mm 6 mps 745 mmHg 74%
    11:00 +21°C° 0.1 mm 6 mps 745 mmHg 71%
    12:00 +22°C° 0.1 mm 7 mps 745 mmHg 68%
    13:00 +22°C° 0.4 mm 6 mps 745 mmHg 68%
    14:00 +22°C° 0.4 mm 6 mps 745 mmHg 67%
    15:00 +22°C° 0.4 mm 6 mps 745 mmHg 67%
    16:00 +22°C° 0.1 mm 5 mps 745 mmHg 69%
    17:00 +22°C° 0.1 mm 5 mps 745 mmHg 71%
    18:00 +21°C° 0.1 mm 4 mps 745 mmHg 73%
    19:00 +20°C° 0.1 mm 4 mps 746 mmHg 79%
    20:00 +18°C° 0.1 mm 4 mps 746 mmHg 84%
    21:00 +17°C° 0.1 mm 3 mps 746 mmHg 90%
    22:00 +16°C° 0 mm 3 mps 746 mmHg 92%
    23:00 +16°C° 0 mm 3 mps 746 mmHg 94%

    Day after tomorrow, 21 July, Sunday

    Time Temperature Precipitation Wind Pressure Humidity
    00:00 +16°C° 0 mm 3 mps 747 mmHg 95%
    01:00 +14°C° 0 mm 3 mps 747 mmHg 96%
    02:00 +14°C° 0 mm 3 mps 747 mmHg 96%
    03:00 +14°C° 0 mm 3 mps 747 mmHg 96%
    04:00 +14°C° 0 mm 3 mps 747 mmHg 95%
    05:00 +14°C° 0 mm 4 mps 747 mmHg 94%
    06:00 +14°C° 0 mm 4 mps 747 mmHg 94%
    07:00 +17°C° 0 mm 4 mps 747 mmHg 89%
    08:00 +18°C° 0 mm 4 mps 747 mmHg 84%
    09:00 +19°C° 0 mm 4 mps 747 mmHg 78%
    10:00 +21°C° 0 mm 5 mps 747 mmHg 75%
    11:00 +22°C° 0 mm 5 mps 747 mmHg 71%
    12:00 +23°C° 0 mm 5 mps 747 mmHg 67%
    13:00 +23°C° 0.1 mm 5 mps 747 mmHg 66%
    14:00 +23°C° 0.1 mm 5 mps 747 mmHg 65%
    15:00 +25°C° 0.1 mm 5 mps 747 mmHg 64%
    16:00 +23°C° 0.2 mm 5 mps 747 mmHg 66%
    17:00 +23°C° 0.2 mm 4 mps 747 mmHg 69%
    18:00 +24°C° 0.2 mm 3 mps 747 mmHg 72%
    19:00 +21°C° 0.1 mm 3 mps 747 mmHg 77%
    20:00 +19°C° 0.1 mm 2 mps 747 mmHg 82%
    21:00 +18°C° 0.1 mm 2 mps 747 mmHg 87%
    22:00 +17°C° 0 mm 2 mps 747 mmHg 88%
    23:00 +17°C° 0 mm 2 mps 747 mmHg 90%

    22 July, Monday

    Time Temperature Precipitation Wind Pressure Humidity
    00:00 +16°C° 0 mm 2 mps 747 mmHg 91%
    01:00 +16°C° 0 mm 2 mps 747 mmHg 92%
    02:00 +15°C° 0 mm 2 mps 747 mmHg 93%
    03:00 +15°C° 0 mm 2 mps 747 mmHg 93%
    04:00 +15°C° 0 mm 2 mps 747 mmHg 93%
    05:00 +15°C° 0 mm 2 mps 747 mmHg 93%
    06:00 +16°C° 0 mm 2 mps 747 mmHg 94%
    07:00 +17°C° 0 mm 2 mps 747 mmHg 88%
    08:00 +19°C° 0 mm 2 mps 747 mmHg 83%
    09:00 +20°C° 0 mm 2 mps 747 mmHg 78%
    10:00 +21°C° 0 mm 2 mps 746 mmHg 72%
    11:00 +23°C° 0 mm 2 mps 746 mmHg 67%
    12:00 +24°C° 0 mm 2 mps 746 mmHg 61%
    13:00 +25°C° 0 mm 1 mps 746 mmHg 59%
    14:00 +25°C° 0 mm 1 mps 746 mmHg 57%
    15:00 +26°C° 0 mm 1 mps 745 mmHg 54%
    16:00 +26°C° 0 mm 1 mps 745 mmHg 55%
    17:00 +26°C° 0 mm 1 mps 745 mmHg 56%
    18:00 +24°C° 0 mm 0 mps 745 mmHg 57%
    19:00 +24°C° 0 mm 1 mps 745 mmHg 62%
    20:00 +22°C° 0 mm 1 mps 744 mmHg 66%
    21:00 +20°C° 0 mm 2 mps 744 mmHg 70%
    22:00 +19°C° 0 mm 2 mps 744 mmHg 74%
    23:00 +18°C° 0 mm 3 mps 744 mmHg 77%

    23 July, Tuesday

    Time Temperature Precipitation Wind Pressure Humidity
    00:00 +18°C° 0 mm 3 mps 744 mmHg 81%
    01:00 +18°C° 0 mm 3 mps 744 mmHg 81%
    02:00 +18°C° 0 mm 3 mps 743 mmHg 81%
    03:00 +18°C° 0 mm 3 mps 743 mmHg 82%
    04:00 +18°C° 0 mm 3 mps 743 mmHg 81%
    05:00 +17°C° 0 mm 3 mps 743 mmHg 81%
    06:00 +17°C° 0 mm 4 mps 743 mmHg 81%
    07:00 +18°C° 0 mm 4 mps 743 mmHg 80%
    08:00 +18°C° 0 mm 4 mps 743 mmHg 80%
    09:00 +19°C° 0 mm 4 mps 743 mmHg 79%
    10:00 +19°C° 0.2 mm 4 mps 743 mmHg 79%
    11:00 +20°C° 0.2 mm 3 mps 743 mmHg 78%
    12:00 +21°C° 0.2 mm 3 mps 743 mmHg 78%
    13:00 +21°C° 0.2 mm 4 mps 742 mmHg 79%
    14:00 +20°C° 0.2 mm 4 mps 742 mmHg 80%
    15:00 +20°C° 0.2 mm 5 mps 742 mmHg 81%
    16:00 +20°C° 0.1 mm 5 mps 742 mmHg 81%
    17:00 +20°C° 0.1 mm 5 mps 742 mmHg 81%
    18:00 +20°C° 0.1 mm 5 mps 742 mmHg 81%
    19:00 +20°C° 0.3 mm 5 mps 742 mmHg 81%
    20:00 +19°C° 0.3 mm 5 mps 742 mmHg 81%
    21:00 +19°C° 0.3 mm 6 mps 742 mmHg 81%
    22:00 +19°C° 0.3 mm 6 mps 742 mmHg 83%
    23:00 +17°C° 0.3 mm 6 mps 742 mmHg 85%

    24 July, Wednesday

    Time Temperature Precipitation Wind Pressure Humidity
    00:00 +17°C° 0.3 mm 5 mps 742 mmHg 88%
    01:00 +17°C° 0.5 mm 5 mps 742 mmHg 89%
    02:00 +16°C° 0.5 mm 5 mps 742 mmHg 90%
    03:00 +16°C° 0.5 mm 5 mps 742 mmHg 91%
    04:00 +16°C° 0.7 mm 5 mps 742 mmHg 91%
    05:00 +16°C° 0.7 mm 5 mps 742 mmHg 92%
    06:00 +16°C° 0.7 mm 5 mps 742 mmHg 93%
    07:00 +16°C° 0.8 mm 5 mps 742 mmHg 93%
    08:00 +16°C° 0.8 mm 5 mps 742 mmHg 93%
    09:00 +16°C° 0.8 mm 5 mps 742 mmHg 94%
    10:00 +16°C° 1.7 mm 5 mps 742 mmHg 95%
    11:00 +16°C° 1.7 mm 5 mps 742 mmHg 96%
    12:00 +15°C° 1.7 mm 5 mps 743 mmHg 97%
    13:00 +16°C° 2.5 mm 5 mps 742 mmHg 97%
    14:00 +16°C° 2.5 mm 6 mps 742 mmHg 97%
    15:00 +16°C° 2.5 mm 6 mps 742 mmHg 97%
    16:00 +16°C° 1.2 mm 6 mps 742 mmHg 97%
    17:00 +16°C° 1.2 mm 6 mps 742 mmHg 97%
    18:00 +17°C° 1.2 mm 6 mps 742 mmHg 96%
    19:00 +17°C° 0.8 mm 6 mps 742 mmHg 96%
    20:00 +17°C° 0.8 mm 6 mps 742 mmHg 96%
    21:00 +17°C° 0.8 mm 6 mps 741 mmHg 96%
    22:00 +17°C° 0.6 mm 6 mps 741 mmHg 97%
    23:00 +17°C° 0.6 mm 6 mps 741 mmHg 97%
    Show more